Weather History for KLEB - April, 2014

Change the Weather History Date:

Saturday, April 19, 2014

  Actual Average Record
Temperature  
Mean Temperature 41 °F -  
Max Temperature 55 °F 60 °F 90 °F (1976)
Min Temperature 28 °F 31 °F 15 °F (1926)
Degree Days  
Heating Degree Days 24    
Moisture  
Dew Point 26 °F    
Average Humidity 60    
Maximum Humidity 85    
Minimum Humidity 33    
Precipitation  
Precipitation 0.00 in - - ()
Sea Level Pressure  
Sea Level Pressure 30.28 in    
Wind  
Wind Speed 4 mph (North)    
Max Wind Speed 18 mph    
Max Gust Speed 29 mph    
Visibility 10 miles    
Events      
Averages and records for this station are not official NWS values.
T = Trace of Precipitation, MM = Missing Value Source: NWS Daily Summary

Daily Weather History Graph

Daily Weather History Graph

Search for Another Location

Airport or City:

Trip Planner

Search our weather history database for the weather conditions in past years. The results will help you decide how hot, cold, wet, or windy it might be!

Date:

Astronomy

Apr. 19, 2014 Rise Set
Actual Time 6:00 AM EDT 7:37 PM EDT
Civil Twilight 5:29 AM EDT 8:07 PM EDT
Nautical Twilight 4:53 AM EDT 8:44 PM EDT
Astronomical Twilight 4:14 AM EDT 9:23 PM EDT
Moon No Moon Rise 9:11 AM EDT (4/19)
Length of Visible Light 14h 37m
Length of Day
13h 37m
Waning Gibbous, 79% of the Moon is Illuminated
Apr 19
Waning Gibbous
Apr 22
Last Quarter
Apr 29
New
May 6
First Quarter
May 14
Full

Hourly Weather History & Observations

Time (EDT) Temp. Windchill Dew Point Humidity Pressure Visibility Wind Dir Wind Speed Gust Speed Precip Events Conditions
12:53 AM 30.9 °F - 26.1 °F 82% 30.20 in 10.0 mi Calm Calm - N/A   Clear
1:53 AM 30.9 °F - 26.1 °F 82% 30.18 in 10.0 mi Calm Calm - N/A   Mostly Cloudy
2:53 AM 30.9 °F - 26.1 °F 82% 30.16 in 10.0 mi Calm Calm - N/A   Mostly Cloudy
3:53 AM 28.9 °F 22.8 °F 25.0 °F 85% 30.16 in 10.0 mi South 5.8 mph - N/A   Clear
5:53 AM 28.9 °F - 24.1 °F 82% 30.17 in 10.0 mi Calm Calm - N/A   Mostly Cloudy
6:53 AM 30.0 °F - 26.1 °F 85% 30.19 in 10.0 mi Calm Calm - N/A   Partly Cloudy
7:53 AM 36.0 °F - 28.0 °F 73% 30.21 in 10.0 mi Calm Calm - N/A   Clear
8:53 AM 41.0 °F - 28.9 °F 62% 30.22 in 10.0 mi Calm Calm - N/A   Mostly Cloudy
9:53 AM 48.0 °F - 30.9 °F 52% 30.22 in 10.0 mi North 6.9 mph - N/A   Mostly Cloudy
10:53 AM 51.1 °F - 32.0 °F 48% 30.24 in 10.0 mi NNE 13.8 mph 18.4 mph N/A   Overcast
11:53 AM 53.1 °F - 33.1 °F 47% 30.25 in 10.0 mi North 10.4 mph 20.7 mph N/A   Mostly Cloudy
12:53 PM 53.1 °F - 30.9 °F 43% 30.27 in 10.0 mi NNW 15.0 mph 25.3 mph N/A   Mostly Cloudy
1:53 PM 54.0 °F - 30.0 °F 40% 30.28 in 10.0 mi North 11.5 mph 20.7 mph N/A   Mostly Cloudy
3:53 PM 53.1 °F - 26.1 °F 35% 30.30 in 10.0 mi NW 18.4 mph 28.8 mph N/A   Partly Cloudy
4:53 PM 52.0 °F - 24.1 °F 34% 30.32 in 10.0 mi North 11.5 mph 18.4 mph N/A   Partly Cloudy
5:53 PM 50.0 °F - 21.9 °F 33% 30.33 in 10.0 mi North 12.7 mph - N/A   Clear
6:53 PM 48.0 °F - 21.9 °F 36% 30.35 in 10.0 mi North 9.2 mph - N/A   Clear
7:53 PM 45.0 °F 41.8 °F 21.9 °F 40% 30.37 in 10.0 mi North 5.8 mph - N/A   Clear
8:53 PM 36.0 °F - 24.1 °F 62% 30.40 in 10.0 mi Calm Calm - N/A   Clear
9:53 PM 32.0 °F 28.7 °F 24.1 °F 73% 30.42 in 10.0 mi South 3.5 mph - N/A   Clear
10:53 PM 30.9 °F - 24.1 °F 76% 30.43 in 10.0 mi Calm Calm - N/A   Clear
11:53 PM 28.9 °F 21.1 °F 23.0 °F 78% 30.45 in 10.0 mi South 8.1 mph - N/A   Clear